Home   Weather   Pinneberg   Past weeks

Flag for Germany Past Weather in Pinneberg, Schleswig-Holstein, Germany — Yesterday and Last 2 Weeks

45 °F

Scattered showers. Partly cloudy.

Feels Like: 41 °F
Forecast: 41 / 49 °F
Wind: 7 mph from Northeast

Location: Hamburg-Fuhlsbuettel

Current Time: Oct 21, 2016 at 10:20:24 PM

Latest Report: Oct 21, 2016 at 9:50 PM

Visibility: 6 mi

Pressure: 29.92 "Hg

Humidity: 100%

Dew Point: 45 °F

Location of PinnebergLocation

Past Weather in Pinneberg — Graph


Pinneberg Temperature Yesterday

Maximum temperature yesterday: 48 °F (at 2:20 PM)
Minimum temperature yesterday: 39 °F (at 12:50 AM)
Average temperature yesterday: 45 °F

High & Low Weather Summary for the Past Weeks

High61 °F (Oct 18, 2:20 PM)100% (Oct 7, 9:20 AM)30.30 "Hg (Oct 7, 9:20 AM)
Low36 °F (Oct 9, 2:20 AM)58% (Oct 8, 3:50 PM)29.80 "Hg (Oct 15, 5:50 AM)
Average48 °F89%30.11 "Hg
* Reported Oct 6 8:20 PM — Oct 21 8:50 PM, Pinneberg, Weather by CustomWeather, © 2016

Note: Actual official high and low records may vary slightly from our data, if they occured in-between our weather recording intervals... More about our weather records


Pinneberg Weather History for the Previous 24 Hours

Scroll right to see more
Time TempWeatherWind HumidityBarometerVisibility
8:50 PM
Fri, Oct 21
45 °FPassing clouds.6 mph93%29.92 "HgN/A
8:20 PM46 °FPartly cloudy.5 mph93%29.92 "HgN/A
7:50 PM46 °FPartly cloudy.7 mph93%29.92 "HgN/A
7:20 PM46 °FRain. Partly cloudy.7 mph93%29.92 "Hg5 mi
6:50 PM48 °FLight rain. Partly cloudy.8 mph87%29.92 "HgN/A
6:20 PM48 °FLight rain. Partly cloudy.6 mph94%29.89 "HgN/A
5:50 PM48 °FLight rain. Broken clouds.5 mph87%29.89 "Hg5 mi
5:20 PM50 °FLight rain. Partly sunny.3 mph82%29.89 "HgN/A
4:50 PM50 °FBroken clouds.3 mph88%29.89 "HgN/A
4:20 PM50 °FPartly sunny.5 mph82%29.89 "HgN/A
3:50 PM50 °FBroken clouds.5 mph88%29.89 "HgN/A
3:20 PM48 °FBroken clouds.2 mph87%29.89 "HgN/A
2:50 PM48 °FPartly sunny.3 mph87%29.89 "HgN/A
2:20 PM48 °FScattered showers. Partly sunny.3 mph87%29.89 "HgN/A
1:50 PM48 °FPartly sunny.3 mph87%29.89 "HgN/A
1:20 PM48 °FPartly sunny.3 mph87%29.89 "HgN/A
12:50 PM48 °FBroken clouds.5 mph87%29.89 "HgN/A
12:20 PM48 °FBroken clouds.6 mph87%29.89 "HgN/A
11:50 AM48 °FLight rain. Partly sunny.8 mph87%29.89 "HgN/A
11:20 AM48 °FLight rain. Partly sunny.8 mph87%29.89 "HgN/A
10:50 AM46 °FPartly sunny.9 mph93%29.89 "HgN/A
10:20 AM46 °FPartly sunny.6 mph93%29.89 "HgN/A
9:50 AM46 °FLight rain. Partly sunny.7 mph93%29.89 "HgN/A
9:20 AM46 °FLight rain. Partly sunny.7 mph93%29.92 "Hg4 mi
8:50 AM46 °FLight rain. Partly sunny.6 mph93%29.92 "Hg4 mi
8:20 AM46 °FLight rain. Partly sunny.6 mph93%29.92 "Hg4 mi
7:50 AM46 °FLight rain. Mostly cloudy.6 mph93%29.92 "Hg4 mi
7:20 AM46 °FLight rain. Mostly cloudy.5 mph100%29.92 "Hg4 mi
6:50 AM46 °FLight rain. Mostly cloudy.5 mph100%29.92 "Hg5 mi
6:20 AM46 °FLight rain. Passing clouds.5 mph100%29.92 "HgN/A
5:50 AM46 °FDrizzle. Fog.6 mph100%29.92 "Hg3 mi
5:20 AM46 °FFog.6 mph100%29.92 "Hg2 mi
4:50 AM46 °FLow clouds.6 mph93%29.92 "Hg4 mi
4:20 AM46 °FLow clouds.6 mph93%29.95 "Hg4 mi
3:50 AM46 °FLow clouds.6 mph93%29.95 "Hg4 mi
3:20 AM46 °FPassing clouds.5 mph93%29.95 "Hg4 mi
2:50 AM45 °FPassing clouds.5 mph100%29.95 "Hg6 mi
2:20 AM45 °FPassing clouds.5 mph100%29.95 "Hg6 mi
1:50 AM45 °FPassing clouds.5 mph100%29.98 "Hg6 mi
1:20 AM45 °FPassing clouds.3 mph100%29.98 "HgN/A
12:50 AM45 °FPartly cloudy.5 mph93%29.98 "HgN/A
12:20 AM45 °FPartly cloudy.5 mph93%29.98 "HgN/A
11:50 PM
Thu, Oct 20
45 °FPassing clouds.2 mph93%29.98 "HgN/A
11:20 PM43 °FPartly cloudy.5 mph100%29.98 "HgN/A
10:50 PM43 °FPartly cloudy.2 mph100%29.98 "HgN/A
10:20 PM43 °FPartly cloudy.5 mph100%29.98 "HgN/A
Weather by CustomWeather, © 2016

See weather overviewHow to use our weather pages